,,,PA_Meas_PMT16A,,PR_Meas_QMR101_102,,RH_Meas_QMH101,,SR_Meas_QMS101,,TA_Meas_QMH101,,GenWind,,GenWind,
date,time,status,PA,status,PR,status,RH,status,SR,status,TA,status,DirAvg,status,SpdAvg,
2013-01-11, 00:00:04,VALID,1009.27,VALID,0,VALID,104,VALID,0,VALID,24.4735,VALID,348,VALID,0.49375,
2013-01-11, 00:01:04,VALID,1009.25,VALID,0,VALID,104,VALID,0,VALID,24.493,VALID,348,VALID,0.342969,
2013-01-11, 00:02:04,VALID,1009.29,VALID,0,VALID,104,VALID,0,VALID,24.4735,VALID,348,VALID,0.397266,
2013-01-11, 00:03:04,VALID,1009.29,VALID,0,VALID,104,VALID,0,VALID,24.454,VALID,348,VALID,0.510547,
2013-01-11, 00:04:04,VALID,1009.26,VALID,0,VALID,104,VALID,0,VALID,24.4735,VALID,348,VALID,0.208203,
2013-01-11, 00:05:04,VALID,1009.28,VALID,0,VALID,104,VALID,0,VALID,24.4735,VALID,348,VALID,0.408984,
2013-01-11, 00:06:04,VALID,1009.29,VALID,0,VALID,104,VALID,0,VALID,24.454,VALID,346,VALID,0.562109,
2013-01-11, 00:07:04,VALID,1009.31,VALID,0,VALID,104,VALID,0,VALID,24.493,VALID,346,VALID,0.330078,
2013-01-11, 00:08:04,VALID,1009.33,VALID,0,VALID,104,VALID,0,VALID,24.493,VALID,335,VALID,0.562891,
2013-01-11, 00:09:04,VALID,1009.34,VALID,0,VALID,104,VALID,0,VALID,24.5144,VALID,335,VALID,0.798828,
2013-01-11, 00:10:04,VALID,1009.33,VALID,0,VALID,104,VALID,0,VALID,24.4735,VALID,334,VALID,0.602734,
2013-01-11, 00:11:04,VALID,1009.34,VALID,0,VALID,104,VALID,0,VALID,24.532,VALID,334,VALID,0.423047,
2013-01-11, 00:12:04,VALID,1009.28,VALID,0,VALID,104,VALID,0,VALID,24.5144,VALID,324,VALID,0.724609,
2013-01-11, 00:13:04,VALID,1009.27,VALID,0,VALID,104,VALID,0,VALID,24.5515,VALID,316,VALID,0.409375,
2013-01-11, 00:14:04,VALID,1009.25,VALID,0,VALID,104,VALID,0,VALID,24.4522,VALID,316,VALID,0.553906,
2013-01-11, 00:15:04,VALID,1009.27,VALID,0,VALID,104,VALID,0,VALID,24.5515,VALID,316,VALID,0.473047,
2013-01-11, 00:16:04,VALID,1009.25,VALID,0,VALID,104,VALID,0,VALID,24.532,VALID,311,VALID,0.449219,
2013-01-11, 00:17:04,VALID,1009.25,VALID,0,VALID,104,VALID,0,VALID,24.5515,VALID,319,VALID,0.974609,
2013-01-11, 00:18:04,VALID,1009.2,VALID,0,VALID,104,VALID,0.112112,VALID,24.5515,VALID,322,VALID,0.533203,
2013-01-11, 00:19:04,VALID,1009.19,VALID,0,VALID,104,VALID,0,VALID,24.5515,VALID,321,VALID,0.476953,
2013-01-11, 00:20:04,VALID,1009.22,VALID,0,VALID,104,VALID,0,VALID,24.571,VALID,240,VALID,0.434375,
2013-01-11, 00:21:04,VALID,1009.21,VALID,0,VALID,104,VALID,0,VALID,24.5515,VALID,246,VALID,0.255859,
2013-01-11, 00:22:04,VALID,1009.23,VALID,0,VALID,104,VALID,0,VALID,24.5125,VALID,246,VALID,0.489062,
2013-01-11, 00:23:04,VALID,1009.23,VALID,0,VALID,104,VALID,0,VALID,24.532,VALID,246,VALID,0,
2013-01-11, 00:24:04,VALID,1009.22,VALID,0,VALID,104,VALID,0,VALID,24.532,VALID,246,VALID,0.414063,
2013-01-11, 00:25:04,VALID,1009.25,VALID,0,VALID,104,VALID,0,VALID,24.5515,VALID,246,VALID,0.046875,
2013-01-11, 00:26:04,VALID,1009.21,VALID,0,VALID,104,VALID,0,VALID,24.532,VALID,317,VALID,1.21328,
2013-01-11, 00:27:04,VALID,1009.27,VALID,0,VALID,104,VALID,0,VALID,24.5125,VALID,331,VALID,0.724219,
2013-01-11, 00:28:04,VALID,1009.24,VALID,0,VALID,104,VALID,0,VALID,24.5125,VALID,331,VALID,0.396875,
2013-01-11, 00:29:04,VALID,1009.21,VALID,0,VALID,104,VALID,0,VALID,24.493,VALID,331,VALID,0.665234,
2013-01-11, 00:30:04,VALID,1009.2,VALID,0,VALID,104,VALID,0,VALID,24.493,VALID,331,VALID,0.467187,
2013-01-11, 00:31:04,VALID,1009.17,VALID,0,VALID,104,VALID,0,VALID,24.493,VALID,331,VALID,0.0859375,
2013-01-11, 00:32:04,VALID,1009.17,VALID,0,VALID,104,VALID,0,VALID,24.493,VALID,308,VALID,0.542188,
2013-01-11, 00:33:04,VALID,1009.14,VALID,0,VALID,104,VALID,0,VALID,24.493,VALID,308,VALID,0.194922,
2013-01-11, 00:34:04,VALID,1009.18,VALID,0,VALID,104,VALID,0,VALID,24.493,VALID,308,VALID,0.503906,
2013-01-11, 00:35:04,VALID,1009.14,VALID,0,VALID,104,VALID,0,VALID,24.4717,VALID,308,VALID,0.453906,
2013-01-11, 00:36:04,VALID,1009.12,VALID,0,VALID,104,VALID,0,VALID,24.493,VALID,306,VALID,0.838281,
2013-01-11, 00:37:04,VALID,1009.09,VALID,0,VALID,104,VALID,0,VALID,24.532,VALID,307,VALID,0.234766,
2013-01-11, 00:38:04,VALID,1009.09,VALID,0,VALID,104,VALID,0,VALID,24.493,VALID,281,VALID,0.407813,
2013-01-11, 00:39:04,VALID,1009.06,VALID,0,VALID,104,VALID,0,VALID,24.4735,VALID,269,VALID,0.230078,
2013-01-11, 00:40:04,VALID,1009.09,VALID,0,VALID,104,VALID,0,VALID,24.4735,VALID,270,VALID,0.175781,
2013-01-11, 00:41:04,VALID,1009.09,VALID,0,VALID,104,VALID,0,VALID,24.4345,VALID,271,VALID,0.298047,
2013-01-11, 00:42:04,VALID,1009.06,VALID,0,VALID,104,VALID,0,VALID,24.4345,VALID,271,VALID,0.30625,
2013-01-11, 00:43:04,VALID,1009.06,VALID,0,VALID,104,VALID,0,VALID,24.4345,VALID,300,VALID,0.567969,
2013-01-11, 00:44:04,VALID,1009.06,VALID,0,VALID,104,VALID,0,VALID,24.415,VALID,334,VALID,0.772656,
2013-01-11, 00:45:04,VALID,1009.06,VALID,0,VALID,104,VALID,0,VALID,24.4345,VALID,330,VALID,0.462891,
2013-01-11, 00:46:04,VALID,1009.05,VALID,0,VALID,104,VALID,0,VALID,24.3584,VALID,330,VALID,0.294531,
2013-01-11, 00:47:04,VALID,1009,VALID,0,VALID,104,VALID,0,VALID,24.4345,VALID,323,VALID,0.560547,
2013-01-11, 00:48:04,VALID,1008.99,VALID,0,VALID,104,VALID,0,VALID,24.415,VALID,14,VALID,0.621484,
2013-01-11, 00:49:04,VALID,1009,VALID,0,VALID,104,VALID,0,VALID,24.3956,VALID,345,VALID,0.519531,
2013-01-11, 00:50:04,VALID,1008.98,VALID,0,VALID,104,VALID,0,VALID,24.3937,VALID,355,VALID,0.639453,
2013-01-11, 00:51:04,VALID,1008.99,VALID,0,VALID,104,VALID,0,VALID,24.454,VALID,346,VALID,0.283984,
2013-01-11, 00:52:04,VALID,1008.95,VALID,0,VALID,104,VALID,0,VALID,24.454,VALID,346,VALID,0.606641,
2013-01-11, 00:53:04,VALID,1008.95,VALID,0,VALID,104,VALID,0,VALID,24.4345,VALID,346,VALID,0.35,
2013-01-11, 00:54:04,VALID,1008.89,VALID,0,VALID,104,VALID,0,VALID,24.454,VALID,346,VALID,0.469922,
2013-01-11, 00:55:04,VALID,1008.91,VALID,0,VALID,104,VALID,0,VALID,24.415,VALID,346,VALID,0.574219,
2013-01-11, 00:56:04,VALID,1008.91,VALID,0,VALID,104,VALID,0,VALID,24.415,VALID,346,VALID,0.413281,
2013-01-11, 00:57:04,VALID,1008.91,VALID,0,VALID,104,VALID,0,VALID,24.415,VALID,346,VALID,0.706641,
2013-01-11, 00:58:04,VALID,1008.91,VALID,0,VALID,104,VALID,0,VALID,24.3761,VALID,346,VALID,0.712891,
2013-01-11, 00:59:04,VALID,1008.91,VALID,0,VALID,104,VALID,0,VALID,24.415,VALID,345,VALID,0.290625,
2013-01-11, 01:00:04,VALID,1008.88,VALID,0,VALID,104,VALID,0.112112,VALID,24.3761,VALID,345,VALID,0.165625,
2013-01-11, 01:01:04,VALID,1008.89,VALID,0,VALID,104,VALID,0,VALID,24.3547,VALID,345,VALID,0.425391,
2013-01-11, 01:02:04,VALID,1008.87,VALID,0,VALID,104,VALID,0,VALID,24.3566,VALID,343,VALID,0.621484,
2013-01-11, 01:03:04,VALID,1008.88,VALID,0,VALID,104,VALID,0,VALID,24.415,VALID,343,VALID,0.243359,
2013-01-11, 01:04:04,VALID,1008.85,VALID,0,VALID,104,VALID,0,VALID,24.3956,VALID,343,VALID,0.394141,
2013-01-11, 01:05:04,VALID,1008.82,VALID,0,VALID,104,VALID,0,VALID,24.3761,VALID,343,VALID,0.578125,
2013-01-11, 01:06:04,VALID,1008.84,VALID,0,VALID,104,VALID,0,VALID,24.3566,VALID,343,VALID,0.437891,
2013-01-11, 01:07:04,VALID,1008.83,VALID,0,VALID,104,VALID,0,VALID,24.3371,VALID,343,VALID,0.461719,
2013-01-11, 01:08:04,VALID,1008.84,VALID,0,VALID,104,VALID,0,VALID,24.3371,VALID,343,VALID,0.105859,
2013-01-11, 01:09:04,VALID,1008.78,VALID,0,VALID,104,VALID,0,VALID,24.3158,VALID,343,VALID,0.310937,
2013-01-11, 01:10:04,VALID,1008.78,VALID,0,VALID,104,VALID,0,VALID,24.3176,VALID,343,VALID,0,
2013-01-11, 01:11:04,VALID,1008.76,VALID,0,VALID,104,VALID,0,VALID,24.3566,VALID,343,VALID,0,
2013-01-11, 01:12:04,VALID,1008.74,VALID,0,VALID,104,VALID,0,VALID,24.3176,VALID,343,VALID,0.209375,
2013-01-11, 01:13:04,VALID,1008.71,VALID,0,VALID,104,VALID,0,VALID,24.3566,VALID,343,VALID,0,
2013-01-11, 01:14:04,VALID,1008.7,VALID,0,VALID,104,VALID,0,VALID,24.3176,VALID,343,VALID,0,
2013-01-11, 01:15:04,VALID,1008.68,VALID,0,VALID,104,VALID,0,VALID,24.3371,VALID,343,VALID,0.457031,
2013-01-11, 01:16:04,VALID,1008.68,VALID,0,VALID,104,VALID,0,VALID,24.2981,VALID,343,VALID,0.258594,
2013-01-11, 01:17:04,VALID,1008.67,VALID,0,VALID,104,VALID,0,VALID,24.2981,VALID,343,VALID,0.546484,
2013-01-11, 01:18:04,VALID,1008.7,VALID,0,VALID,104,VALID,0,VALID,24.2981,VALID,343,VALID,0.297266,
2013-01-11, 01:19:04,VALID,1008.72,VALID,0,VALID,104,VALID,0,VALID,24.2981,VALID,343,VALID,0.357031,
2013-01-11, 01:20:04,VALID,1008.69,VALID,0,VALID,104,VALID,0,VALID,24.2981,VALID,343,VALID,0.361719,
2013-01-11, 01:21:04,VALID,1008.7,VALID,0,VALID,104,VALID,0,VALID,24.2981,VALID,345,VALID,0.40625,
2013-01-11, 01:22:04,VALID,1008.72,VALID,0,VALID,104,VALID,0,VALID,24.2768,VALID,345,VALID,0.176172,
2013-01-11, 01:23:04,VALID,1008.76,VALID,0,VALID,104,VALID,0,VALID,24.2981,VALID,345,VALID,0.607422,
2013-01-11, 01:24:04,VALID,1008.76,VALID,0,VALID,104,VALID,0,VALID,24.2981,VALID,345,VALID,0.113672,
2013-01-11, 01:25:04,VALID,1008.76,VALID,0,VALID,104,VALID,0,VALID,24.3176,VALID,345,VALID,0.243359,
2013-01-11, 01:26:04,VALID,1008.76,VALID,0,VALID,104,VALID,0,VALID,24.3371,VALID,345,VALID,0.0246094,
2013-01-11, 01:27:04,VALID,1008.75,VALID,0,VALID,104,VALID,0,VALID,24.2981,VALID,345,VALID,0.275,
2013-01-11, 01:28:04,VALID,1008.76,VALID,0,VALID,104,VALID,0,VALID,24.2981,VALID,345,VALID,0.161719,
2013-01-11, 01:29:04,VALID,1008.75,VALID,0,VALID,104,VALID,0,VALID,24.3176,VALID,353,VALID,0.975,
2013-01-11, 01:30:04,VALID,1008.74,VALID,0,VALID,104,VALID,0,VALID,24.2768,VALID,351,VALID,0.298828,
2013-01-11, 01:31:04,VALID,1008.7,VALID,0,VALID,104,VALID,0,VALID,24.2768,VALID,351,VALID,0.217187,
2013-01-11, 01:32:04,VALID,1008.71,VALID,0,VALID,104,VALID,0,VALID,24.2786,VALID,351,VALID,0.209766,
2013-01-11, 01:33:04,VALID,1008.69,VALID,0,VALID,104,VALID,0,VALID,24.2786,VALID,351,VALID,0.228906,
2013-01-11, 01:34:04,VALID,1008.71,VALID,0,VALID,104,VALID,0,VALID,24.2981,VALID,351,VALID,0.0105469,
2013-01-11, 01:35:05,VALID,1008.7,VALID,0,VALID,104,VALID,0,VALID,24.2573,VALID,351,VALID,0.279297,
2013-01-11, 01:36:05,VALID,1008.69,VALID,0,VALID,104,VALID,0,VALID,24.2786,VALID,351,VALID,0.260938,
2013-01-11, 01:37:05,VALID,1008.67,VALID,0,VALID,104,VALID,0,VALID,24.2786,VALID,351,VALID,0.155469,
2013-01-11, 01:38:05,VALID,1008.69,VALID,0,VALID,104,VALID,0,VALID,24.2591,VALID,351,VALID,0,
2013-01-11, 01:39:05,VALID,1008.68,VALID,0,VALID,104,VALID,0,VALID,24.2591,VALID,351,VALID,0,
2013-01-11, 01:40:05,VALID,1008.67,VALID,0,VALID,104,VALID,0,VALID,24.2591,VALID,351,VALID,0.229297,
2013-01-11, 01:41:05,VALID,1008.64,VALID,0,VALID,104,VALID,0,VALID,24.2786,VALID,351,VALID,0.268359,
2013-01-11, 01:42:05,VALID,1008.65,VALID,0,VALID,104,VALID,0,VALID,24.2202,VALID,351,VALID,0.575,
2013-01-11, 01:43:05,VALID,1008.62,VALID,0,VALID,104,VALID,0,VALID,24.2591,VALID,351,VALID,0.346875,
2013-01-11, 01:44:05,VALID,1008.6,VALID,0,VALID,104,VALID,0,VALID,24.2591,VALID,351,VALID,0.203906,
2013-01-11, 01:45:05,VALID,1008.58,VALID,0,VALID,104,VALID,0,VALID,24.2591,VALID,351,VALID,0.352734,
2013-01-11, 01:46:05,VALID,1008.55,VALID,0,VALID,104,VALID,0,VALID,24.2396,VALID,351,VALID,0.314063,
2013-01-11, 01:47:05,VALID,1008.53,VALID,0,VALID,104,VALID,0,VALID,24.2396,VALID,351,VALID,0.255859,
2013-01-11, 01:48:05,VALID,1008.51,VALID,0,VALID,104,VALID,0,VALID,24.2591,VALID,351,VALID,0.317187,
2013-01-11, 01:49:05,VALID,1008.5,VALID,0,VALID,104,VALID,0,VALID,24.2396,VALID,351,VALID,0.273828,
2013-01-11, 01:50:05,VALID,1008.47,VALID,0,VALID,104,VALID,0,VALID,24.2396,VALID,351,VALID,0.354297,
2013-01-11, 01:51:05,VALID,1008.44,VALID,0,VALID,104,VALID,0,VALID,24.2396,VALID,351,VALID,0.301562,
2013-01-11, 01:52:05,VALID,1008.42,VALID,0,VALID,104,VALID,0,VALID,24.2786,VALID,351,VALID,0,
2013-01-11, 01:53:05,VALID,1008.43,VALID,0,VALID,104,VALID,0,VALID,24.2396,VALID,351,VALID,0.00429688,
2013-01-11, 01:54:05,VALID,1008.43,VALID,0,VALID,104,VALID,0,VALID,24.2396,VALID,351,VALID,0.33125,
2013-01-11, 01:55:05,VALID,1008.4,VALID,0,VALID,104,VALID,0,VALID,24.2183,VALID,351,VALID,0.223438,
2013-01-11, 01:56:05,VALID,1008.39,VALID,0,VALID,104,VALID,0,VALID,24.2591,VALID,351,VALID,0.253125,
2013-01-11, 01:57:05,VALID,1008.34,VALID,0,VALID,104,VALID,0,VALID,24.2202,VALID,351,VALID,0.137891,
2013-01-11, 01:58:05,VALID,1008.33,VALID,0,VALID,104,VALID,0,VALID,24.2396,VALID,351,VALID,0.147656,
2013-01-11, 01:59:05,VALID,1008.31,VALID,0,VALID,104,VALID,0,VALID,24.2591,VALID,351,VALID,0.0585938,
2013-01-11, 02:00:05,VALID,1008.3,VALID,0,VALID,104,VALID,0,VALID,24.2591,VALID,351,VALID,0.442578,
2013-01-11, 02:01:05,VALID,1008.28,VALID,0,VALID,104,VALID,0.112112,VALID,24.2183,VALID,351,VALID,0.003125,
2013-01-11, 02:02:05,VALID,1008.27,VALID,0,VALID,104,VALID,0,VALID,24.2202,VALID,351,VALID,0.00078125,
2013-01-11, 02:03:05,VALID,1008.26,VALID,0,VALID,104,VALID,0,VALID,24.2202,VALID,351,VALID,0.340234,
2013-01-11, 02:04:05,VALID,1008.22,VALID,0,VALID,104,VALID,0,VALID,24.2202,VALID,351,VALID,0.298438,
2013-01-11, 02:05:05,VALID,1008.22,VALID,0,VALID,104,VALID,0.112112,VALID,24.1988,VALID,351,VALID,0.319922,
2013-01-11, 02:06:05,VALID,1008.21,VALID,0,VALID,104,VALID,0,VALID,24.2202,VALID,351,VALID,0.302734,
2013-01-11, 02:07:05,VALID,1008.22,VALID,0,VALID,104,VALID,0,VALID,24.2396,VALID,351,VALID,0.264844,
2013-01-11, 02:08:05,VALID,1008.22,VALID,0,VALID,104,VALID,0,VALID,24.2396,VALID,351,VALID,0,
2013-01-11, 02:09:05,VALID,1008.23,VALID,0,VALID,104,VALID,0,VALID,24.2396,VALID,351,VALID,0,
2013-01-11, 02:10:05,VALID,1008.2,VALID,0,VALID,104,VALID,0.112112,VALID,24.2396,VALID,351,VALID,0,
2013-01-11, 02:11:05,VALID,1008.2,VALID,0,VALID,104,VALID,0.112112,VALID,24.2786,VALID,351,VALID,0,
2013-01-11, 02:12:05,VALID,1008.21,VALID,0,VALID,104,VALID,0,VALID,24.2591,VALID,351,VALID,0,
2013-01-11, 02:13:05,VALID,1008.21,VALID,0,VALID,104,VALID,0,VALID,24.2396,VALID,351,VALID,0,
2013-01-11, 02:14:05,VALID,1008.21,VALID,0,VALID,104,VALID,0,VALID,24.2396,VALID,351,VALID,0,
2013-01-11, 02:15:05,VALID,1008.15,VALID,0,VALID,104,VALID,0,VALID,24.2591,VALID,351,VALID,0,
2013-01-11, 02:16:05,VALID,1008.12,VALID,0,VALID,104,VALID,0,VALID,24.2591,VALID,351,VALID,0,
2013-01-11, 02:17:05,VALID,1008.13,VALID,0,VALID,104,VALID,0,VALID,24.2396,VALID,351,VALID,0,
2013-01-11, 02:18:05,VALID,1008.09,VALID,0,VALID,104,VALID,0,VALID,24.2591,VALID,351,VALID,0,
2013-01-11, 02:19:05,VALID,1008.09,VALID,0,VALID,104,VALID,0,VALID,24.1988,VALID,351,VALID,0,
2013-01-11, 02:20:05,VALID,1008.1,VALID,0,VALID,104,VALID,0,VALID,24.2007,VALID,351,VALID,0,
2013-01-11, 02:21:05,VALID,1008.09,VALID,0,VALID,104,VALID,0,VALID,24.2396,VALID,351,VALID,0,
2013-01-11, 02:22:05,VALID,1008.09,VALID,0,VALID,104,VALID,0,VALID,24.2202,VALID,351,VALID,0,
2013-01-11, 02:23:05,VALID,1008.06,VALID,0,VALID,104,VALID,0,VALID,24.2202,VALID,351,VALID,0,
2013-01-11, 02:24:05,VALID,1008.05,VALID,0,VALID,104,VALID,0,VALID,24.2202,VALID,350,VALID,0.457422,
2013-01-11, 02:25:05,VALID,1008.06,VALID,0,VALID,104,VALID,0,VALID,24.1988,VALID,345,VALID,0.664063,
2013-01-11, 02:26:05,VALID,1008.02,VALID,0,VALID,104,VALID,0,VALID,24.2007,VALID,343,VALID,0.56875,
2013-01-11, 02:27:05,VALID,1008.02,VALID,0,VALID,104,VALID,0,VALID,24.2007,VALID,344,VALID,0.639063,
2013-01-11, 02:28:05,VALID,1008.01,VALID,0,VALID,104,VALID,0,VALID,24.2007,VALID,319,VALID,0.983984,
2013-01-11, 02:29:05,VALID,1008.05,VALID,0,VALID,104,VALID,0,VALID,24.2202,VALID,316,VALID,0.321875,
2013-01-11, 02:30:05,VALID,1008.05,VALID,0,VALID,104,VALID,0,VALID,24.2396,VALID,316,VALID,0.429297,
2013-01-11, 02:31:05,VALID,1008.1,VALID,0,VALID,104,VALID,0,VALID,24.2396,VALID,316,VALID,0.0257812,
2013-01-11, 02:32:05,VALID,1008.12,VALID,0,VALID,104,VALID,0,VALID,24.2202,VALID,316,VALID,0.163281,
2013-01-11, 02:33:05,VALID,1008.11,VALID,0,VALID,104,VALID,0,VALID,24.2378,VALID,316,VALID,0.485938,
2013-01-11, 02:34:05,VALID,1008.12,VALID,0,VALID,104,VALID,0.112112,VALID,24.2378,VALID,309,VALID,0.98125,
2013-01-11, 02:35:05,VALID,1008.17,VALID,0,VALID,104,VALID,0,VALID,24.2591,VALID,316,VALID,0.946875,
2013-01-11, 02:36:05,VALID,1008.13,VALID,0,VALID,104,VALID,0,VALID,24.2786,VALID,305,VALID,0.476172,
2013-01-11, 02:37:05,VALID,1008.13,VALID,0,VALID,104,VALID,0,VALID,24.2786,VALID,308,VALID,0.578516,
2013-01-11, 02:38:05,VALID,1008.19,VALID,0,VALID,104,VALID,0,VALID,24.2591,VALID,357,VALID,0.551172,
2013-01-11, 02:39:05,VALID,1008.21,VALID,0,VALID,104,VALID,0,VALID,24.2591,VALID,357,VALID,0.391797,
2013-01-11, 02:40:05,VALID,1008.2,VALID,0,VALID,104,VALID,0,VALID,24.2786,VALID,357,VALID,0.360156,
2013-01-11, 02:41:05,VALID,1008.19,VALID,0,VALID,104,VALID,0,VALID,24.2378,VALID,22,VALID,0.656641,
2013-01-11, 02:42:05,VALID,1008.19,VALID,0,VALID,104,VALID,0,VALID,24.2591,VALID,45,VALID,0.639844,
2013-01-11, 02:43:05,VALID,1008.18,VALID,0,VALID,104,VALID,0,VALID,24.2573,VALID,45,VALID,0.222656,
2013-01-11, 02:44:05,VALID,1008.19,VALID,0,VALID,104,VALID,0,VALID,24.2591,VALID,45,VALID,0.433594,
2013-01-11, 02:45:05,VALID,1008.21,VALID,0,VALID,104,VALID,0,VALID,24.2202,VALID,349,VALID,0.141797,
2013-01-11, 02:46:05,VALID,1008.2,VALID,0,VALID,104,VALID,0,VALID,24.2396,VALID,349,VALID,0.00078125,
2013-01-11, 02:47:05,VALID,1008.21,VALID,0,VALID,104,VALID,0,VALID,24.2396,VALID,349,VALID,0,
2013-01-11, 02:48:05,VALID,1008.22,VALID,0,VALID,104,VALID,0,VALID,24.2591,VALID,349,VALID,0.373828,
2013-01-11, 02:49:05,VALID,1008.26,VALID,0,VALID,104,VALID,0,VALID,24.2202,VALID,349,VALID,0.0484375,
2013-01-11, 02:50:05,VALID,1008.28,VALID,0,VALID,104,VALID,0,VALID,24.2786,VALID,349,VALID,0.313281,
2013-01-11, 02:51:05,VALID,1008.27,VALID,0,VALID,104,VALID,0,VALID,24.2786,VALID,349,VALID,0.144922,
2013-01-11, 02:52:05,VALID,1008.31,VALID,0,VALID,104,VALID,0,VALID,24.2805,VALID,349,VALID,0.183203,
2013-01-11, 02:53:05,VALID,1008.29,VALID,0,VALID,104,VALID,0,VALID,24.2573,VALID,349,VALID,0.298828,
2013-01-11, 02:54:05,VALID,1008.34,VALID,0,VALID,104,VALID,0,VALID,24.2591,VALID,349,VALID,0.00546875,
2013-01-11, 02:55:05,VALID,1008.32,VALID,0,VALID,104,VALID,0,VALID,24.3176,VALID,349,VALID,0.399219,
2013-01-11, 02:56:05,VALID,1008.29,VALID,0,VALID,104,VALID,0,VALID,24.2573,VALID,349,VALID,0.0902344,
2013-01-11, 02:57:05,VALID,1008.32,VALID,0,VALID,104,VALID,0,VALID,24.2591,VALID,349,VALID,0.736719,
2013-01-11, 02:58:05,VALID,1008.33,VALID,0,VALID,104,VALID,0,VALID,24.2591,VALID,349,VALID,0.459766,
2013-01-11, 02:59:05,VALID,1008.34,VALID,0,VALID,104,VALID,0,VALID,24.2591,VALID,349,VALID,0.269922,
2013-01-11, 03:00:05,VALID,1008.32,VALID,0,VALID,104,VALID,0,VALID,24.2981,VALID,349,VALID,0.373437,
2013-01-11, 03:01:05,VALID,1008.32,VALID,0,VALID,104,VALID,0.112112,VALID,24.2786,VALID,349,VALID,0.0507813,
2013-01-11, 03:02:05,VALID,1008.33,VALID,0,VALID,104,VALID,0,VALID,24.3176,VALID,349,VALID,0.0109375,
2013-01-11, 03:03:05,VALID,1008.35,VALID,0,VALID,104,VALID,0,VALID,24.2378,VALID,349,VALID,0.122656,
2013-01-11, 03:04:05,VALID,1008.35,VALID,0,VALID,104,VALID,0,VALID,24.2786,VALID,314,VALID,0.466406,
2013-01-11, 03:05:05,VALID,1008.34,VALID,0,VALID,104,VALID,0,VALID,24.2591,VALID,314,VALID,0.258594,
2013-01-11, 03:06:05,VALID,1008.34,VALID,0,VALID,104,VALID,0,VALID,24.2591,VALID,314,VALID,0.223047,
2013-01-11, 03:07:05,VALID,1008.34,VALID,0,VALID,104,VALID,0,VALID,24.2591,VALID,314,VALID,0.319531,
2013-01-11, 03:08:05,VALID,1008.36,VALID,0,VALID,104,VALID,0,VALID,24.2786,VALID,314,VALID,0.253125,
2013-01-11, 03:09:05,VALID,1008.34,VALID,0,VALID,104,VALID,0,VALID,24.3371,VALID,314,VALID,0.743359,
2013-01-11, 03:10:05,VALID,1008.33,VALID,0,VALID,104,VALID,0,VALID,24.2786,VALID,314,VALID,0.407813,
2013-01-11, 03:11:05,VALID,1008.32,VALID,0,VALID,104,VALID,0,VALID,24.2591,VALID,314,VALID,0.133984,
2013-01-11, 03:12:05,VALID,1008.33,VALID,0,VALID,104,VALID,0,VALID,24.2786,VALID,314,VALID,0.290234,
2013-01-11, 03:13:05,VALID,1008.29,VALID,0,VALID,104,VALID,0,VALID,24.3176,VALID,314,VALID,0.194922,
2013-01-11, 03:14:05,VALID,1008.32,VALID,0,VALID,104,VALID,0,VALID,24.2591,VALID,314,VALID,0.009375,
2013-01-11, 03:15:05,VALID,1008.32,VALID,0,VALID,104,VALID,0,VALID,24.2981,VALID,314,VALID,0.444922,
2013-01-11, 03:16:05,VALID,1008.3,VALID,0,VALID,104,VALID,0,VALID,24.2591,VALID,314,VALID,0,
2013-01-11, 03:17:05,VALID,1008.32,VALID,0,VALID,104,VALID,0,VALID,24.2981,VALID,314,VALID,0.0210938,
2013-01-11, 03:18:05,VALID,1008.32,VALID,0,VALID,104,VALID,0,VALID,24.2591,VALID,314,VALID,0,
2013-01-11, 03:19:05,VALID,1008.31,VALID,0,VALID,104,VALID,0,VALID,24.2396,VALID,314,VALID,0.241406,
2013-01-11, 03:20:05,VALID,1008.33,VALID,0,VALID,104,VALID,0,VALID,24.2591,VALID,314,VALID,0.226172,
2013-01-11, 03:21:05,VALID,1008.36,VALID,0,VALID,104,VALID,0,VALID,24.2591,VALID,314,VALID,0.317578,
2013-01-11, 03:22:05,VALID,1008.36,VALID,0,VALID,104,VALID,0,VALID,24.2396,VALID,314,VALID,0.105078,
2013-01-11, 03:23:05,VALID,1008.34,VALID,0,VALID,104,VALID,0,VALID,24.2573,VALID,314,VALID,0,
2013-01-11, 03:24:05,VALID,1008.32,VALID,0,VALID,104,VALID,0,VALID,24.2981,VALID,314,VALID,0,
2013-01-11, 03:25:05,VALID,1008.34,VALID,0,VALID,104,VALID,0,VALID,24.2007,VALID,314,VALID,0.111328,
2013-01-11, 03:26:05,VALID,1008.33,VALID,0,VALID,104,VALID,0,VALID,24.2786,VALID,314,VALID,0.0460938,
2013-01-11, 03:27:05,VALID,1008.36,VALID,0,VALID,104,VALID,0,VALID,24.2786,VALID,314,VALID,0,
2013-01-11, 03:28:05,VALID,1008.37,VALID,0,VALID,104,VALID,0,VALID,24.2591,VALID,314,VALID,0.0207031,
2013-01-11, 03:29:05,VALID,1008.36,VALID,0,VALID,104,VALID,0,VALID,24.2396,VALID,314,VALID,0,
2013-01-11, 03:30:05,VALID,1008.37,VALID,0,VALID,104,VALID,0,VALID,24.2378,VALID,314,VALID,0.281641,
2013-01-11, 03:31:05,VALID,1008.38,VALID,0,VALID,104,VALID,0,VALID,24.2591,VALID,314,VALID,0.308203,
2013-01-11, 03:32:05,VALID,1008.38,VALID,0,VALID,104,VALID,0,VALID,24.2396,VALID,314,VALID,0.375391,
2013-01-11, 03:33:05,VALID,1008.38,VALID,0,VALID,104,VALID,0,VALID,24.2202,VALID,314,VALID,0.336719,
2013-01-11, 03:34:05,VALID,1008.36,VALID,0,VALID,104,VALID,0,VALID,24.2396,VALID,314,VALID,0.392578,
2013-01-11, 03:35:05,VALID,1008.35,VALID,0,VALID,104,VALID,0,VALID,24.2396,VALID,314,VALID,0.266797,
2013-01-11, 03:36:05,VALID,1008.33,VALID,0,VALID,104,VALID,0,VALID,24.3371,VALID,314,VALID,0.2125,
2013-01-11, 03:37:05,VALID,1008.33,VALID,0,VALID,104,VALID,0,VALID,24.1812,VALID,314,VALID,0.0792969,
2013-01-11, 03:38:05,VALID,1008.31,VALID,0,VALID,104,VALID,0,VALID,24.3371,VALID,314,VALID,0,
2013-01-11, 03:39:05,VALID,1008.29,VALID,0,VALID,104,VALID,0,VALID,24.2007,VALID,314,VALID,0,
2013-01-11, 03:40:05,VALID,1008.28,VALID,0,VALID,104,VALID,0,VALID,24.1812,VALID,314,VALID,0,
2013-01-11, 03:41:05,VALID,1008.28,VALID,0,VALID,104,VALID,0,VALID,24.2025,VALID,314,VALID,0,
2013-01-11, 03:42:05,VALID,1008.26,VALID,0,VALID,104,VALID,0,VALID,24.2007,VALID,314,VALID,0,
2013-01-11, 03:43:05,VALID,1008.29,VALID,0,VALID,104,VALID,0,VALID,24.0819,VALID,314,VALID,0,
2013-01-11, 03:44:05,VALID,1008.27,VALID,0,VALID,104,VALID,0,VALID,24.2007,VALID,314,VALID,0,
2013-01-11, 03:45:05,VALID,1008.28,VALID,0,VALID,104,VALID,0,VALID,24.1812,VALID,314,VALID,0,
2013-01-11, 03:46:05,VALID,1008.29,VALID,0,VALID,104,VALID,0,VALID,24.1812,VALID,314,VALID,0,
2013-01-11, 03:47:05,VALID,1008.31,VALID,0,VALID,104,VALID,0,VALID,24.2202,VALID,314,VALID,0,
2013-01-11, 03:48:05,VALID,1008.31,VALID,0,VALID,104,VALID,0,VALID,24.2007,VALID,314,VALID,0,
2013-01-11, 03:49:05,VALID,1008.29,VALID,0,VALID,104,VALID,0,VALID,24.1812,VALID,314,VALID,0,
2013-01-11, 03:50:05,VALID,1008.29,VALID,0,VALID,104,VALID,0,VALID,24.1812,VALID,314,VALID,0,
2013-01-11, 03:51:05,VALID,1008.3,VALID,0,VALID,104,VALID,0,VALID,24.1812,VALID,314,VALID,0,
2013-01-11, 03:52:05,VALID,1008.27,VALID,0,VALID,104,VALID,0,VALID,24.2007,VALID,314,VALID,0,
2013-01-11, 03:53:05,VALID,1008.28,VALID,0,VALID,104,VALID,0,VALID,24.1617,VALID,314,VALID,0,
2013-01-11, 03:54:05,VALID,1008.26,VALID,0,VALID,104,VALID,0,VALID,24.2007,VALID,314,VALID,0,
2013-01-11, 03:55:05,VALID,1008.25,VALID,0,VALID,104,VALID,0,VALID,24.2007,VALID,314,VALID,0,